Regional Weather Roundup
Issued by NWS Upton, NY

Current Version | Previous Version | Text Only | Print | Product List | Glossary On
Versions: 1 2 3 4 5 6 7 8 9 10 11 12 13 14 15 16 17 18 19 20 21 22 23 24 25 26 27 28 29 30 31 32 33 34 35 36 37 38 39 40 41 42 43 44 45 46 47 48 49 50
000
ASUS41 KOKX 232005
RWROKX

REGIONAL WEATHER ROUNDUP
NATIONAL WEATHER SERVICE NEW YORK NY
400 PM EDT WED JUL 23 2014

NOTE: "FAIR" INDICATES FEW OR NO CLOUDS BELOW 12,000 FEET WITH NO
SIGNIFICANT WEATHER AND/OR OBSTRUCTIONS TO VISIBILITY.

NYZ071-072-176-178-NJZ106-104-232100-
NEW YORK CITY METRO AREA


CITY           SKY/WX    TMP DP  RH WIND       PRES   REMARKS
CENTRAL PARK   PTSUNNY   86  72  62 VRB6      29.85F HX  92
LAGUARDIA APRT MOSUNNY   87  72  60 S15G23    29.82F HX  93
KENNEDY INTL   MOSUNNY   82  72  71 S21       29.85F
NEWARK/LIBERTY PTSUNNY   90  72  55 S14G20    29.81F HX  97
BRNX BOT. GARD   N/A     84  72  65 E9        29.83F
TETERBORO      MOSUNNY   93  71  48 S14G21    29.79F HX 100
$$

NYZ177-179-078>081-232100-
LONG ISLAND NEW YORK

CITY           SKY/WX    TMP DP  RH WIND       PRES   REMARKS
FARMINGDALE    SUNNY     80  72  76 S20       29.86F
ISLIP          MOSUNNY   83  70  64 S13       29.84F
SHIRLEY        SUNNY    N/A N/A N/A S14G23    29.87F
WESTHAMPTON    SUNNY     79  69  71 SW15G22   29.88F
MONTAUK POINT    N/A     77  70  79 S9G18     29.88F
$$

NYZ052-065-067-232100-
HUDSON VALLEY

CITY           SKY/WX    TMP DP  RH WIND       PRES   REMARKS
WHITE PLAINS   MOSUNNY   85  72  65 S14G21    29.83F HX  91
NEWBURGH       PTSUNNY   88  73  62 SW9       29.82F HX  96
MONTGOMERY     MOSUNNY   88  71  57 SW8       29.80F HX  94
POUGHKEEPSIE   MOSUNNY   89  71  55 S9        29.78F HX  95
ALBANY         MOSUNNY   90  72  55 S14G22    29.74F HX  97
$$

NJZ001-105-106-008-010-013-015-019>022-104-232100-
NEW JERSEY

CITY           SKY/WX    TMP DP  RH WIND       PRES   REMARKS
NEWARK/LIBERTY PTSUNNY   90  72  55 S14G20    29.81F HX  97
TETERBORO      MOSUNNY   93  71  48 S14G21    29.79F HX 100
CALDWELL       MOSUNNY   90  71  53 VRB7      29.82F HX  96
MORRISTOWN     PTSUNNY   91  72  52 SW14G21   29.82F HX  98
SOMERVILLE     MOSUNNY   88  73  61 S8        29.80F HX  95
LINDEN         HAZE      92  71  50 SW6       29.83F VSB 3/4 HX  99
SUSSEX         MOSUNNY   90  71  53 SW10      29.82F HX  96
ANDOVER          N/A     87  70  56 SW10      29.83F HX  92
TRENTON        MOSUNNY   89  71  55 SW12      29.83F HX  95
MILLVILLE      SUNNY     85  73  67 S8        29.88F HX  91
ATLANTIC CITY  SUNNY     83  70  64 S14G21    29.88F
WRIGHTSTOWN    MOSUNNY   90  73  57 SW12      29.82F HX  98
TOMS RIVER     MOSUNNY   90  73  58 S12G22    29.85F HX  98
BELMAR         PTSUNNY   84  73  70 S10       29.85F HX  91
$$

PAZ047>061-062-071-232100-
EASTERN PENNSYLVANIA

CITY           SKY/WX    TMP DP  RH WIND       PRES   REMARKS
PHILADELPHIA   PTSUNNY   91  69  48 SW14      29.85F HX  96
ALLENTOWN      MOSUNNY   91  70  49 SW9       29.82F HX  96
SCRANTON       PTSUNNY   87  68  52 W14       29.83F HX  90
$$

CTZ002-004>006-009-010-012-RIZ004-006-007-MAZ004-011-015-232100-
SOUTHERN NEW ENGLAND
 IN CT

CITY           SKY/WX    TMP DP  RH WIND       PRES   REMARKS
BRADLEY INTL   PTSUNNY   91  70  49 SW16G23   29.78F HX  96
HARTFORD       SUNNY     88  71  57 S14G21    29.79F HX  94
DANBURY        MOSUNNY   86  72  62 S12G21    29.83F HX  92
WTRBRY/OXFORD  MOSUNNY   84  72  65 S9G18     29.87F
BRIDGEPORT     SUNNY     85  73  67 S17       29.83F HX  91
MERIDEN        SUNNY     87  71  58 S15G22    29.82F HX  93
NEW HAVEN      MOSUNNY   85  72  65 S12G18    29.83F HX  91
CHESTER        FAIR      82  72  69 S12       29.86F
GROTON         SUNNY     77  69  76 SW12      29.85F
WILLIMANTIC    SUNNY     87  71  58 S14G22    29.82F HX  93

 IN RI

CITY           SKY/WX    TMP DP  RH WIND       PRES   REMARKS
PROVIDENCE     MOSUNNY   85  70  60 SW16G28   29.83F
BLOCK ISLAND   SUNNY     75  68  78 SW17G23   29.88F
WESTERLY       SUNNY     80  67  64 SW15G26   29.87F

 IN MA

CITY           SKY/WX    TMP DP  RH WIND       PRES   REMARKS
BOSTON         MOSUNNY   87  71  58 S16       29.76F HX  93
WORCESTER      PTSUNNY   86  70  58 SW17G24   29.83F HX  90
WESTFIELD      PTSUNNY   91  69  48 SW16      29.77F HX  96
PROVINCETOWN   SUNNY     79  72  78 SW21      29.83S
NANTUCKET      MOSUNNY   72  67  84 S14G23    29.88F
$$

ANZ330-335-338-340-345-350-353-355-232100-
COASTAL MARINE OBSERVATIONS


STATION/POSITION TIME  SKY/WX   TEMP    WIND        PRES    VSBY  WAVE
                                AIR SEA DIR/SP/G                  HT/PER
                 (UTC)          (F)     (DEG/KT/KT) (MB)    (MI)  (FT/S)
NY HARB ENTRANCE NOT AVBL
4S FIRE IS       NOT AVBL
23SW MTP         2000            74 71              1011.2          2/ 4
HUDSON CANYON    2000            75 75  210/ 12/ 14 1012.5          2/ 7
EXECUTION ROCKS  2000            82 72  200/ 14/ 19   N/A
WESTERN LI SOUND 2000            82     180/ 12/ 14   N/A           1
CENTRAL LI SOUND 1900            77 74  210/ 12/ 14   N/A           1/ 2
EASTERN LI SOUND 1900            73 68  220/  6/ 10   N/A
ROBBINS REEF     2000            82     160/ 19/ 20   N/A
$$


>>>>>>>>>>>>>>>>>>>>>>>>>>>> KEY <<<<<<<<<<<<<<<<<<<<<<<<<<<
>                                                          <
>     SKY/WX - SKY CONDITION/PRESENT WEATHER               <
>     TMP    - TEMPERATURE IN FAHRENHEIT                   <
>     DP     - DEWPOINT IN FAHRENHEIT                      <
>     RH     - RELATIVE HUMIDITY IN PERCENT                <
>     WIND   - DIRECTION AND SPEED IN MPH                  <
>     PRES   - MEAN SEA LEVEL PRESSURE IN INCHES OF HG     <
>     WCI    - WIND CHILL INDEX                            <
>     VSB    - VISIBILITY IN MILES                         <
>     HX     - HEAT INDEX                                  <
>     TC     - TEMPERATURE IN CELSIUS                      <
>     VRB    - VARIABLE WIND DIRECTION                     <
>                                                          <
>>>>>>>>>>>>>>>>>>>>>>>>>>>> KEY <<<<<<<<<<<<<<<<<<<<<<<<<<<





USA.gov is the U.S. government's official web portal to all federal, state and local government web resources and services.